Weather in Bestuzhevo

Russia / Arkhangel'skaya Oblast'     61°36′33″N   43°57′10″E
temp.,
°C
wind,
m/s
gust,
m/s
humid.,
%
clouds,
%
prec.,
mm/h
press.,
hPa
HPBL,
m
23 may, mon
mon2300:00+1n51072100 0.0 10031011
03:00−1nnw51192100 0.4 1001885
06:00−1n41091100 1.4 1000845
09:00−1nnw5991100 2.8 998839
12:000nnw5887100 1.8 999897
15:00+1nnw4788100 3.5 998850
18:00+2n379399 0.6 998682
21:000nnw399899 0.9 999531
24 may, tue
tue2400:000n3898100 0.1 1000514
03:000nnw3898100 0.3 1001478
06:00+1n3897100 0.3 1002505
09:00+1nne3898100 0.9 1004433
12:00+3ne369582 0.3 1006574
15:00+5ne358898 1.0 1008816
18:00+6ne348541 0.3 1009802
21:00−1n119818 0.3 101124
25 may, wed
wed2500:00+1nnw2696100 0.0 1011148
03:00−1nnw259969 0.0 101281
06:00+3n249680 0.0 1011239
09:00+5nnw3695100 0.1 1011632
12:00+5nnw3795100 0.2 10111021
15:00+4nne1798100 1.5 1011612
18:00+4nnw3699100 2.4 1011613
21:00+4nnw259994 2.4 1010291
26 may, thu
thu2600:00+3nw2399100 0.1 1010114
03:00+3nw2699100 0.1 1009194
06:00+4nw279699 0.0 1008318
09:00+6nw248995 0.1 1007688
12:00+7wnw237885 0.9 1006865
15:00+10w126653 1.4 10041219
18:00+9nw117652 0.8 1003650
21:00+4se009112 1.2 100210
27 may, fri
fri2700:00+2ese11955 0.0 100110
03:00+1se11965 0.0 100011
06:00+5ese12905 0.0 999174
09:00+9ese237518 0.1 998902
12:00+12se235964 0.6 9971480
15:00+13sse235195 1.1 9971721
18:00+12se1260100 0.2 997253
21:00+8s398599 0.3 998267